Weather History for KISP - February, 2014

Change the Weather History Date:

Wednesday, February 19, 2014

  Actual Average Record
Temperature  
Mean Temperature 33 °F 33 °F  
Max Temperature 44 °F 41 °F 60 °F (1997)
Min Temperature 21 °F 26 °F 8 °F (2015)
Degree Days  
Heating Degree Days 32 32  
Month to date heating degree days 694 627  
Since 1 July heating degree days 3666 3619  
Cooling Degree Days 0 0  
Month to date cooling degree days 0 0  
Year to date cooling degree days 0 0  
Moisture  
Dew Point 33 °F    
Average Humidity 85    
Maximum Humidity 100    
Minimum Humidity 70    
Precipitation  
Precipitation 0.36 in 0.12 in 0.36 in (2014)
Month to date precipitation 4.11 2.10  
Year to date precipitation 8.09 5.74  
Snow  
Snow 0.00 in 0.30 in T in (2009)
Month to date snowfall 23.9 4.8  
Since 1 July snowfall 57.5 17.4  
Snow Depth 10.00 in    
Sea Level Pressure  
Sea Level Pressure 29.87 in    
Wind  
Wind Speed 7 mph (SSW)    
Max Wind Speed 18 mph    
Max Gust Speed 25 mph    
Visibility 5 miles    
Events Rain    
T = Trace of Precipitation, MM = Missing Value Source: NWS Daily Summary

Daily Weather History Graph

Daily Weather History Graph

Search for Another Location

Airport or City:

Trip Planner

Search our weather history database for the weather conditions in past years. The results will help you decide how hot, cold, wet, or windy it might be!

Date:

Astronomy

Feb. 19, 2014 Rise Set
Actual Time 6:41 AM EST 5:31 PM EST
Civil Twilight 6:13 AM EST 5:59 PM EST
Nautical Twilight 5:41 AM EST 6:31 PM EST
Astronomical Twilight 5:09 AM EST 7:03 PM EST
Moon 10:24 PM EST (2/19) 8:43 AM EST (2/19)
Length of Visible Light 11h 46m
Length of Day
10h 50m
Waning Gibbous, 80% of the Moon is Illuminated
Feb 19
Waning Gibbous
Feb 22
Last Quarter
Mar 1
New
Mar 8
First Quarter
Mar 16
Full

Hourly Weather History & Observations

Time (EST) Temp. Windchill Dew Point Humidity Pressure Visibility Wind Dir Wind Speed Gust Speed Precip Events Conditions
12:56 AM 26.1 °F - 19.9 °F 78% 30.10 in 8.0 mi Calm Calm - N/A   Clear
1:56 AM 24.1 °F - 19.0 °F 81% 30.09 in 6.0 mi Calm Calm - N/A   Haze
2:56 AM 23.0 °F - 19.0 °F 85% 30.08 in 4.0 mi Calm Calm - N/A   Clear
3:56 AM 24.1 °F 18.2 °F 19.0 °F 81% 30.10 in 6.0 mi SW 4.6 mph - N/A   Haze
4:56 AM 24.1 °F 16.0 °F 19.9 °F 84% 30.04 in 6.0 mi East 6.9 mph - N/A   Clear
5:56 AM 25.0 °F - 21.0 °F 85% 30.03 in 5.0 mi Calm Calm - N/A   Mostly Cloudy
6:56 AM 26.1 °F 19.4 °F 21.0 °F 81% 29.99 in 7.0 mi ESE 5.8 mph - N/A   Mostly Cloudy
7:56 AM 35.1 °F 26.9 °F 27.0 °F 72% 29.97 in 10.0 mi SE 11.5 mph - N/A   Mostly Cloudy
8:56 AM 39.0 °F 31.0 °F 30.0 °F 70% 29.95 in 10.0 mi ESE 13.8 mph - N/A   Mostly Cloudy
9:56 AM 43.0 °F 34.8 °F 35.1 °F 74% 29.90 in 10.0 mi SE 18.4 mph 25.3 mph N/A   Overcast
10:56 AM 42.1 °F 35.2 °F 37.0 °F 82% 29.86 in 8.0 mi SE 12.7 mph - N/A   Overcast
11:56 AM 42.1 °F 38.4 °F 37.9 °F 85% 29.85 in 4.0 mi SE 5.8 mph - 0.00 in Rain Light Rain
12:30 PM 39.2 °F 33.6 °F 37.4 °F 93% 29.79 in 1.5 mi East 8.1 mph - 0.04 in Rain Light Rain
12:56 PM 41.0 °F 35.8 °F 37.9 °F 89% 29.77 in 1.0 mi ESE 8.1 mph - 0.10 in Rain Rain
1:35 PM 42.8 °F 38.6 °F 41.0 °F 93% 29.73 in 1.5 mi SSE 6.9 mph - 0.16 in Rain Rain
1:56 PM 43.0 °F 38.8 °F 42.1 °F 97% 29.72 in 1.5 mi South 6.9 mph - 0.21 in Rain Light Rain
2:37 PM 42.8 °F 38.6 °F 42.8 °F 100% 29.69 in 1.5 mi South 6.9 mph - 0.03 in Rain Light Rain
2:56 PM 43.0 °F 38.2 °F 41.0 °F 93% 29.70 in 2.0 mi SW 8.1 mph - 0.04 in   Overcast
3:38 PM 42.8 °F 38.0 °F 39.2 °F 87% 29.69 in 1.5 mi WSW 8.1 mph - N/A   Overcast
3:56 PM 42.1 °F 38.4 °F 39.9 °F 92% 29.69 in 2.0 mi WSW 5.8 mph - N/A   Overcast
4:56 PM 42.1 °F 37.7 °F 37.9 °F 85% 29.70 in 2.0 mi SW 6.9 mph - N/A   Partly Cloudy
5:56 PM 39.9 °F 35.8 °F 37.9 °F 93% 29.74 in 2.0 mi SW 5.8 mph - N/A   Overcast
6:56 PM 39.9 °F 36.7 °F 37.0 °F 89% 29.76 in 2.0 mi West 4.6 mph - 0.01 in   Overcast
7:56 PM 39.0 °F 34.8 °F 36.0 °F 89% 29.79 in 2.0 mi WSW 5.8 mph - 0.00 in   Overcast
8:56 PM 37.9 °F 32.7 °F 35.1 °F 89% 29.82 in 2.0 mi West 6.9 mph - N/A   Overcast
9:56 PM 41.0 °F 34.7 °F 36.0 °F 82% 29.86 in 5.0 mi West 10.4 mph - N/A   Haze
10:56 PM 41.0 °F 34.3 °F 35.1 °F 79% 29.90 in 10.0 mi WNW 11.5 mph - N/A   Scattered Clouds
11:56 PM 41.0 °F 33.1 °F 33.1 °F 73% 29.94 in 10.0 mi WNW 15.0 mph - N/A   Clear